Time,TemperatureF,DewpointF,PressureIn,WindDirection,WindDirectionDegrees,WindSpeedMPH,WindSpeedGustMPH,Humidity,HourlyPrecipIn,Conditions,Clouds,dailyrainin,SoftwareType,DateUTC
2013-04-28 00:01:00,31.0,7.0,-100.00,NNW,335,4.0,8.0,36,0.00,,,-99.99,,2013-04-28 06:01:00,
2013-04-28 00:12:00,31.0,7.0,-100.00,NW,325,4.0,6.0,36,0.00,,,-99.99,,2013-04-28 06:12:00,
2013-04-28 00:21:00,31.0,8.0,-100.00,NNW,340,4.0,6.0,35,0.00,,,-99.99,,2013-04-28 06:21:00,
2013-04-28 00:32:00,34.0,8.0,-100.00,NW,320,4.0,7.0,34,0.00,,,-99.99,,2013-04-28 06:32:00,
2013-04-28 00:42:00,31.0,7.0,-100.00,SSW,195,0.0,3.0,35,0.00,,,-99.99,,2013-04-28 06:42:00,
2013-04-28 00:51:00,33.0,8.0,-100.00,North,0,4.0,6.0,34,0.00,,,-99.99,,2013-04-28 06:51:00,
2013-04-28 01:01:00,33.0,8.0,-100.00,NNE,25,4.0,9.0,33,0.00,,,-99.99,,2013-04-28 07:01:00,
2013-04-28 01:11:00,34.0,8.0,-100.00,NE,35,4.0,6.0,33,0.00,,,-99.99,,2013-04-28 07:11:00,
2013-04-28 01:21:00,32.0,7.0,-100.00,NE,40,1.0,5.0,34,0.00,,,-99.99,,2013-04-28 07:21:00,
2013-04-28 01:32:00,31.0,6.0,-100.00,SE,135,1.0,3.0,35,0.00,,,-99.99,,2013-04-28 07:32:00,
2013-04-28 01:42:00,30.0,6.0,-100.00,East,85,0.0,2.0,36,0.00,,,-99.99,,2013-04-28 07:42:00,
2013-04-28 01:52:00,29.0,7.0,-100.00,South,170,1.0,4.0,37,0.00,,,-99.99,,2013-04-28 07:52:00,
2013-04-28 02:02:00,29.0,7.0,-100.00,SSE,160,2.0,3.0,37,0.00,,,-99.99,,2013-04-28 08:02:00,
2013-04-28 02:11:00,29.0,7.0,-100.00,South,185,3.0,6.0,38,0.00,,,-99.99,,2013-04-28 08:11:00,
2013-04-28 02:21:00,29.0,7.0,-100.00,South,180,8.0,9.0,38,0.00,,,-99.99,,2013-04-28 08:21:00,
2013-04-28 02:32:00,29.0,7.0,-100.00,South,185,7.0,9.0,38,0.00,,,-99.99,,2013-04-28 08:32:00,
2013-04-28 02:42:00,29.0,7.0,-100.00,SSW,200,7.0,9.0,38,0.00,,,-99.99,,2013-04-28 08:42:00,
2013-04-28 02:52:00,28.0,7.0,-100.00,South,190,4.0,8.0,39,0.00,,,-99.99,,2013-04-28 08:52:00,
2013-04-28 03:01:00,29.0,7.0,-100.00,South,180,6.0,7.0,39,0.00,,,-99.99,,2013-04-28 09:01:00,
2013-04-28 03:11:00,28.0,7.0,-100.00,South,180,7.0,10.0,39,0.00,,,-99.99,,2013-04-28 09:11:00,
2013-04-28 03:21:00,29.0,7.0,-100.00,South,190,6.0,9.0,39,0.00,,,-99.99,,2013-04-28 09:21:00,
2013-04-28 03:33:00,28.0,7.0,-100.00,South,170,4.0,7.0,40,0.00,,,-99.99,,2013-04-28 09:33:00,
2013-04-28 03:42:00,27.0,6.0,-100.00,South,175,2.0,5.0,41,0.00,,,-99.99,,2013-04-28 09:42:00,
2013-04-28 03:53:00,26.0,6.0,-100.00,SSE,155,2.0,3.0,41,0.00,,,-99.99,,2013-04-28 09:53:00,
2013-04-28 04:03:00,26.0,6.0,-100.00,ESE,105,2.0,3.0,42,0.00,,,-99.99,,2013-04-28 10:03:00,
2013-04-28 04:12:00,27.0,7.0,-100.00,SE,140,2.0,4.0,42,0.00,,,-99.99,,2013-04-28 10:12:00,
2013-04-28 04:22:00,26.0,7.0,-100.00,SE,145,3.0,4.0,43,0.00,,,-99.99,,2013-04-28 10:22:00,
2013-04-28 04:32:00,26.0,7.0,-100.00,South,175,3.0,4.0,43,0.00,,,-99.99,,2013-04-28 10:32:00,
2013-04-28 04:42:00,26.0,7.0,-100.00,South,180,4.0,5.0,43,0.00,,,-99.99,,2013-04-28 10:42:00,
2013-04-28 04:53:00,26.0,7.0,-100.00,South,175,4.0,6.0,43,0.00,,,-99.99,,2013-04-28 10:53:00,
2013-04-28 05:02:00,26.0,7.0,-100.00,South,175,4.0,6.0,43,0.00,,,-99.99,,2013-04-28 11:02:00,
2013-04-28 05:11:00,26.0,7.0,-100.00,SSE,165,4.0,6.0,43,0.00,,,-99.99,,2013-04-28 11:11:00,
2013-04-28 05:22:00,26.0,7.0,-100.00,South,170,4.0,4.0,43,0.00,,,-99.99,,2013-04-28 11:22:00,
2013-04-28 05:32:00,26.0,7.0,-100.00,South,180,4.0,6.0,44,0.00,,,-99.99,,2013-04-28 11:32:00,
2013-04-28 05:42:00,25.0,6.0,-100.00,South,175,4.0,6.0,44,0.00,,,-99.99,,2013-04-28 11:42:00,
2013-04-28 05:52:00,26.0,7.0,-100.00,South,170,2.0,4.0,44,0.00,,,-99.99,,2013-04-28 11:52:00,
2013-04-28 06:02:00,26.0,7.0,-100.00,South,185,3.0,5.0,44,0.00,,,-99.99,,2013-04-28 12:02:00,
2013-04-28 06:12:00,26.0,7.0,-100.00,SSE,155,1.0,4.0,43,0.00,,,-99.99,,2013-04-28 12:12:00,
2013-04-28 06:21:00,28.0,8.0,-100.00,NNE,25,2.0,5.0,42,0.00,,,-99.99,,2013-04-28 12:21:00,
2013-04-28 06:32:00,30.0,9.0,-100.00,NE,35,6.0,9.0,40,0.00,,,-99.99,,2013-04-28 12:32:00,
2013-04-28 06:42:00,30.0,8.0,-100.00,NNE,30,5.0,8.0,39,0.00,,,-99.99,,2013-04-28 12:42:00,
2013-04-28 06:52:00,31.0,9.0,-100.00,NNE,30,5.0,7.0,39,0.00,,,-99.99,,2013-04-28 12:52:00,
2013-04-28 07:02:00,30.0,8.0,-100.00,NNE,30,4.0,9.0,38,0.00,,,-99.99,,2013-04-28 13:02:00,
2013-04-28 07:11:00,31.0,8.0,-100.00,North,10,6.0,9.0,38,0.00,,,-99.99,,2013-04-28 13:11:00,
2013-04-28 07:21:00,32.0,9.0,-100.00,North,0,8.0,12.0,37,0.00,,,-99.99,,2013-04-28 13:21:00,
2013-04-28 07:32:00,31.0,8.0,-100.00,NNW,340,7.0,12.0,38,0.00,,,-99.99,,2013-04-28 13:32:00,
2013-04-28 07:42:00,29.0,8.0,-100.00,North,0,7.0,12.0,39,0.00,,,-99.99,,2013-04-28 13:42:00,
2013-04-28 07:52:00,32.0,10.0,-100.00,North,0,6.0,10.0,38,0.00,,,-99.99,,2013-04-28 13:52:00,
2013-04-28 08:02:00,33.0,9.0,-100.00,North,0,7.0,11.0,36,0.00,,,-99.99,,2013-04-28 14:02:00,
2013-04-28 08:11:00,33.0,9.0,-100.00,NNE,15,6.0,11.0,36,0.00,,,-99.99,,2013-04-28 14:11:00,
2013-04-28 08:22:00,35.0,10.0,-100.00,NNE,20,5.0,10.0,34,0.00,,,-99.99,,2013-04-28 14:22:00,
2013-04-28 08:32:00,36.0,10.0,-100.00,North,0,7.0,15.0,34,0.00,,,-99.99,,2013-04-28 14:32:00,
2013-04-28 08:42:00,37.0,11.0,-100.00,North,0,9.0,16.0,33,0.00,,,-99.99,,2013-04-28 14:42:00,
2013-04-28 08:52:00,37.0,10.0,-100.00,North,10,8.0,15.0,33,0.00,,,-99.99,,2013-04-28 14:52:00,
2013-04-28 09:01:00,37.0,10.0,-100.00,North,355,7.0,14.0,33,0.00,,,-99.99,,2013-04-28 15:01:00,
2013-04-28 09:12:00,38.0,11.0,-100.00,North,5,5.0,12.0,32,0.00,,,-99.99,,2013-04-28 15:12:00,
2013-04-28 09:21:00,38.0,11.0,-100.00,North,10,7.0,14.0,32,0.00,,,-99.99,,2013-04-28 15:21:00,
2013-04-28 09:32:00,39.0,11.0,-100.00,North,0,6.0,13.0,32,0.00,,,-99.99,,2013-04-28 15:32:00,
2013-04-28 09:42:00,39.0,11.0,-100.00,North,0,7.0,14.0,31,0.00,,,-99.99,,2013-04-28 15:42:00,
2013-04-28 09:53:00,41.0,13.0,-100.00,NE,40,1.0,13.0,30,0.00,,,-99.99,,2013-04-28 15:53:00,
2013-04-28 10:03:00,42.0,14.0,-100.00,North,0,4.0,11.0,30,0.00,,,-99.99,,2013-04-28 16:03:00,
2013-04-28 10:13:00,43.0,13.0,-100.00,SE,135,1.0,9.0,29,0.00,,,-99.99,,2013-04-28 16:13:00,
2013-04-28 10:23:00,43.0,13.0,-100.00,South,175,3.0,9.0,29,0.00,,,-99.99,,2013-04-28 16:23:00,
2013-04-28 10:33:00,40.0,12.0,-100.00,South,170,11.0,16.0,31,0.00,,,-99.99,,2013-04-28 16:33:00,
2013-04-28 10:42:00,41.0,13.0,-100.00,ENE,60,2.0,16.0,31,0.00,,,-99.99,,2013-04-28 16:42:00,
2013-04-28 10:52:00,42.0,14.0,-100.00,SE,135,3.0,10.0,30,0.00,,,-99.99,,2013-04-28 16:52:00,
2013-04-28 11:02:00,42.0,14.0,-100.00,SW,220,4.0,9.0,30,0.00,,,-99.99,,2013-04-28 17:02:00,
2013-04-28 11:12:00,41.0,13.0,-100.00,NE,50,6.0,12.0,31,0.00,,,-99.99,,2013-04-28 17:12:00,
2013-04-28 11:22:00,44.0,15.0,-100.00,South,185,5.0,13.0,31,0.00,,,-99.99,,2013-04-28 17:22:00,
2013-04-28 11:32:00,45.0,15.0,-100.00,SW,215,2.0,11.0,30,0.00,,,-99.99,,2013-04-28 17:32:00,
2013-04-28 11:42:00,45.0,15.0,-100.00,SSE,165,4.0,9.0,29,0.00,,,-99.99,,2013-04-28 17:42:00,
2013-04-28 11:52:00,42.0,13.0,-100.00,SSE,160,7.0,14.0,29,0.00,,,-99.99,,2013-04-28 17:52:00,
2013-04-28 12:02:00,45.0,15.0,-100.00,SSE,165,2.0,14.0,29,0.00,,,-99.99,,2013-04-28 18:02:00,
2013-04-28 12:12:00,46.0,16.0,-100.00,North,10,2.0,8.0,28,0.00,,,-99.99,,2013-04-28 18:12:00,
2013-04-28 12:22:00,45.0,15.0,-100.00,West,270,3.0,7.0,28,0.00,,,-99.99,,2013-04-28 18:22:00,
2013-04-28 12:32:00,44.0,13.0,-100.00,ESE,105,6.0,11.0,28,0.00,,,-99.99,,2013-04-28 18:32:00,
2013-04-28 12:42:00,45.0,15.0,-100.00,North,0,2.0,7.0,28,0.00,,,-99.99,,2013-04-28 18:42:00,
2013-04-28 12:52:00,46.0,16.0,-100.00,SSE,150,4.0,7.0,28,0.00,,,-99.99,,2013-04-28 18:52:00,
2013-04-28 13:02:00,45.0,14.0,-100.00,North,0,7.0,14.0,28,0.00,,,-99.99,,2013-04-28 19:02:00,
2013-04-28 13:11:00,46.0,15.0,-100.00,SE,135,1.0,11.0,28,0.00,,,-99.99,,2013-04-28 19:11:00,
2013-04-28 13:22:00,46.0,15.0,-100.00,North,0,4.0,11.0,27,0.00,,,-99.99,,2013-04-28 19:22:00,
2013-04-28 13:32:00,46.0,15.0,-100.00,North,5,4.0,9.0,27,0.00,,,-99.99,,2013-04-28 19:32:00,
2013-04-28 13:42:00,46.0,14.0,-100.00,North,0,6.0,10.0,27,0.00,,,-99.99,,2013-04-28 19:42:00,
2013-04-28 13:52:00,48.0,15.0,-100.00,North,0,3.0,12.0,26,0.00,,,-99.99,,2013-04-28 19:52:00,
2013-04-28 14:02:00,48.0,15.0,-100.00,SSE,150,4.0,11.0,26,0.00,,,-99.99,,2013-04-28 20:02:00,
2013-04-28 14:12:00,47.0,14.0,-100.00,North,0,9.0,17.0,26,0.00,,,-99.99,,2013-04-28 20:12:00,
2013-04-28 14:22:00,46.0,14.0,-100.00,North,350,4.0,13.0,26,0.00,,,-99.99,,2013-04-28 20:22:00,
2013-04-28 14:32:00,48.0,15.0,-100.00,SE,135,3.0,11.0,26,0.00,,,-99.99,,2013-04-28 20:32:00,
2013-04-28 14:42:00,47.0,15.0,-100.00,NNW,345,4.0,16.0,26,0.00,,,-99.99,,2013-04-28 20:42:00,
2013-04-28 14:52:00,48.0,16.0,-100.00,North,10,6.0,12.0,26,0.00,,,-99.99,,2013-04-28 20:52:00,
2013-04-28 15:01:00,48.0,15.0,-100.00,NNE,25,7.0,18.0,26,0.00,,,-99.99,,2013-04-28 21:01:00,
2013-04-28 15:11:00,47.0,14.0,-100.00,North,0,6.0,14.0,26,0.00,,,-99.99,,2013-04-28 21:11:00,
2013-04-28 15:22:00,47.0,15.0,-100.00,South,180,6.0,17.0,27,0.00,,,-99.99,,2013-04-28 21:22:00,
2013-04-28 15:33:00,47.0,15.0,-100.00,ESE,110,3.0,11.0,26,0.00,,,-99.99,,2013-04-28 21:33:00,
2013-04-28 15:42:00,47.0,15.0,-100.00,South,180,6.0,10.0,27,0.00,,,-99.99,,2013-04-28 21:42:00,
2013-04-28 15:52:00,48.0,16.0,-100.00,SSE,160,4.0,14.0,27,0.00,,,-99.99,,2013-04-28 21:52:00,
2013-04-28 16:03:00,48.0,16.0,-100.00,SE,140,6.0,11.0,27,0.00,,,-99.99,,2013-04-28 22:03:00,
2013-04-28 16:12:00,48.0,15.0,-100.00,NNE,15,6.0,12.0,26,0.00,,,-99.99,,2013-04-28 22:12:00,
2013-04-28 16:23:00,47.0,15.0,-100.00,ENE,60,4.0,12.0,26,0.00,,,-99.99,,2013-04-28 22:23:00,
2013-04-28 16:33:00,48.0,15.0,-100.00,SSE,150,6.0,12.0,27,0.00,,,-99.99,,2013-04-28 22:33:00,
2013-04-28 16:42:00,48.0,15.0,-100.00,West,270,4.0,16.0,26,0.00,,,-99.99,,2013-04-28 22:42:00,
2013-04-28 16:52:00,49.0,15.0,-100.00,SW,235,2.0,16.0,25,0.00,,,-99.99,,2013-04-28 22:52:00,
2013-04-28 17:02:00,49.0,15.0,-100.00,North,0,4.0,11.0,26,0.00,,,-99.99,,2013-04-28 23:02:00,
2013-04-28 17:12:00,48.0,14.0,-100.00,North,5,6.0,12.0,25,0.00,,,-99.99,,2013-04-28 23:12:00,
2013-04-28 17:22:00,47.0,14.0,-100.00,NE,45,4.0,20.0,25,0.00,,,-99.99,,2013-04-28 23:22:00,
2013-04-28 17:32:00,47.0,13.0,-100.00,East,95,9.0,17.0,25,0.00,,,-99.99,,2013-04-28 23:32:00,
2013-04-28 17:42:00,47.0,14.0,-100.00,North,0,7.0,17.0,25,0.00,,,-99.99,,2013-04-28 23:42:00,
2013-04-28 17:52:00,47.0,14.0,-100.00,NE,40,7.0,13.0,25,0.00,,,-99.99,,2013-04-28 23:52:00,
2013-04-28 18:01:00,47.0,14.0,-100.00,NE,40,3.0,14.0,25,0.00,,,-99.99,,2013-04-29 00:01:00,
2013-04-28 18:11:00,47.0,13.0,-100.00,NE,40,5.0,13.0,25,0.00,,,-99.99,,2013-04-29 00:11:00,
2013-04-28 18:22:00,47.0,14.0,-100.00,NE,40,4.0,11.0,25,0.00,,,-99.99,,2013-04-29 00:22:00,
2013-04-28 18:32:00,45.0,13.0,-100.00,NNE,30,7.0,18.0,26,0.00,,,-99.99,,2013-04-29 00:32:00,
2013-04-28 18:42:00,45.0,13.0,-100.00,ESE,115,4.0,17.0,27,0.00,,,-99.99,,2013-04-29 00:42:00,
2013-04-28 18:52:00,44.0,13.0,-100.00,South,190,2.0,7.0,27,0.00,,,-99.99,,2013-04-29 00:52:00,
2013-04-28 19:01:00,45.0,13.0,-100.00,SSE,160,4.0,12.0,27,0.00,,,-99.99,,2013-04-29 01:01:00,
2013-04-28 19:12:00,44.0,13.0,-100.00,West,265,2.0,12.0,27,0.00,,,-99.99,,2013-04-29 01:12:00,
2013-04-28 19:21:00,44.0,13.0,-100.00,SSE,155,2.0,9.0,28,0.00,,,-99.99,,2013-04-29 01:21:00,
2013-04-28 19:32:00,44.0,13.0,-100.00,East,90,2.0,8.0,27,0.00,,,-99.99,,2013-04-29 01:32:00,
2013-04-28 19:42:00,44.0,13.0,-100.00,North,10,9.0,11.0,27,0.00,,,-99.99,,2013-04-29 01:42:00,
2013-04-28 19:52:00,43.0,12.0,-100.00,North,0,4.0,12.0,28,0.00,,,-99.99,,2013-04-29 01:52:00,
2013-04-28 20:02:00,43.0,12.0,-100.00,NNE,15,7.0,12.0,28,0.00,,,-99.99,,2013-04-29 02:02:00,
2013-04-28 20:11:00,41.0,11.0,-100.00,North,5,6.0,9.0,29,0.00,,,-99.99,,2013-04-29 02:11:00,
2013-04-28 20:22:00,41.0,11.0,-100.00,NNE,15,4.0,8.0,29,0.00,,,-99.99,,2013-04-29 02:22:00,
2013-04-28 20:32:00,41.0,11.0,-100.00,North,0,2.0,8.0,29,0.00,,,-99.99,,2013-04-29 02:32:00,
2013-04-28 20:42:00,40.0,11.0,-100.00,NNE,30,2.0,6.0,30,0.00,,,-99.99,,2013-04-29 02:42:00,
2013-04-28 20:51:00,39.0,11.0,-100.00,North,355,4.0,9.0,31,0.00,,,-99.99,,2013-04-29 02:51:00,
2013-04-28 21:01:00,38.0,11.0,-100.00,North,0,5.0,9.0,32,0.00,,,-99.99,,2013-04-29 03:01:00,
2013-04-28 21:12:00,38.0,12.0,-100.00,North,10,7.0,12.0,33,0.00,,,-99.99,,2013-04-29 03:12:00,
2013-04-28 21:21:00,39.0,12.0,-100.00,North,0,6.0,9.0,33,0.00,,,-99.99,,2013-04-29 03:21:00,
2013-04-28 21:33:00,38.0,12.0,-100.00,North,10,6.0,10.0,33,0.00,,,-99.99,,2013-04-29 03:33:00,
2013-04-28 21:42:00,38.0,13.0,-100.00,North,355,7.0,13.0,34,0.00,,,-99.99,,2013-04-29 03:42:00,
2013-04-28 21:52:00,40.0,13.0,-100.00,North,5,5.0,11.0,32,0.00,,,-99.99,,2013-04-29 03:52:00,
2013-04-28 22:03:00,39.0,12.0,-100.00,North,0,2.0,7.0,32,0.00,,,-99.99,,2013-04-29 04:03:00,
2013-04-28 22:13:00,37.0,11.0,-100.00,SE,140,1.0,4.0,33,0.00,,,-99.99,,2013-04-29 04:13:00,
2013-04-28 22:23:00,37.0,11.0,-100.00,NE,35,1.0,2.0,34,0.00,,,-99.99,,2013-04-29 04:23:00,
2013-04-28 22:33:00,37.0,11.0,-100.00,WSW,250,0.0,2.0,34,0.00,,,-99.99,,2013-04-29 04:33:00,
2013-04-28 22:43:00,36.0,11.0,-100.00,SW,235,0.0,1.0,35,0.00,,,-99.99,,2013-04-29 04:43:00,
2013-04-28 22:52:00,37.0,11.0,-100.00,NNE,30,1.0,2.0,34,0.00,,,-99.99,,2013-04-29 04:52:00,
2013-04-28 23:02:00,36.0,11.0,-100.00,NE,55,1.0,2.0,34,0.00,,,-99.99,,2013-04-29 05:02:00,
2013-04-28 23:12:00,36.0,11.0,-100.00,East,80,1.0,2.0,34,0.00,,,-99.99,,2013-04-29 05:12:00,
2013-04-28 23:22:00,35.0,11.0,-100.00,NE,50,1.0,2.0,35,0.00,,,-99.99,,2013-04-29 05:22:00,
2013-04-28 23:32:00,35.0,11.0,-100.00,NNE,15,1.0,2.0,36,0.00,,,-99.99,,2013-04-29 05:32:00,
2013-04-28 23:42:00,35.0,11.0,-100.00,North,5,0.0,1.0,36,0.00,,,-99.99,,2013-04-29 05:42:00,
2013-04-28 23:52:00,35.0,11.0,-100.00,West,265,0.0,1.0,36,0.00,,,-99.99,,2013-04-29 05:52:00,